Location: Marcé
(47.5801°N, 0.3280°W)
Time: 18:45:36
(UTC+01:00)

SR - Visible Passes

Search period start: 06 December 2021 00:00
Search period end: 16 December 2021 00:00
Orbit: 583 x 871 km, 66.7° (Epoch: 05 December)

Date Brightness Start Highest point End Pass type
(mag) Time Alt. Az. Time Alt. Az. Time Alt. Az.
06 Dec ? 07:35:34 10° NNW 07:39:32 35° NE 07:43:38 10° ESE visible
07 Dec ? 06:46:07 10° N 06:49:22 21° NE 06:52:44 10° E visible
08 Dec ? 05:57:40 12° N 05:59:02 13° NNE 06:01:11 10° ENE visible
08 Dec ? 07:37:36 10° NNW 07:41:54 62° NE 07:46:23 10° SE visible
09 Dec ? 06:48:39 14° NNW 06:51:53 33° NE 06:55:57 10° ESE visible
10 Dec ? 06:00:17 17° NNE 06:01:42 20° NE 06:04:58 10° E visible
10 Dec ? 07:39:49 10° NW 07:44:08 72° WSW 07:48:42 10° SSE visible
11 Dec ? 05:11:56 12° NE 05:11:56 12° NE 05:13:20 10° ENE visible
11 Dec ? 06:51:21 20° NNW 06:54:15 57° NE 06:58:44 10° SE visible
12 Dec ? 06:03:03 27° NNE 06:04:13 31° NE 06:08:15 10° ESE visible
12 Dec ? 07:42:28 11° NW 07:46:17 38° WSW 07:50:32 10° S visible
13 Dec ? 05:14:48 18° NE 05:14:48 18° NE 05:17:13 10° E visible
13 Dec ? 06:54:13 28° NW 06:56:31 78° WSW 07:01:07 10° SSE visible
14 Dec ? 06:06:02 49° NNE 06:06:37 53° NE 06:11:05 10° SE visible
14 Dec ? 07:45:28 12° WNW 07:48:18 21° WSW 07:51:43 10° SSW visible
15 Dec ? 05:17:55 25° ENE 05:17:55 25° ENE 05:20:32 10° ESE visible
15 Dec ? 06:57:20 32° WNW 06:58:40 41° WSW 07:03:01 10° S visible
